[[{"header":{"parameterUnit":"m.s-1","parameterCategory":1,"la1":30.2991,"la2":30.254,"lo1":-89.0895,"lo2":-89.0444,"dy":0.0017,"dx":0.0017,"nx":28,"ny":28,"refTime":"2025-05-26T03:00:00:Z","depth":0,"parameterNumber":2,"parameterNumberName":"U-component_of_WINDS"},"data":[0,0,0,0,0,0,0,0,0,0,0,0,0,0,0,0,0,0,0,0,0,0,0,0,0,0,0,0,0,0,0,0,0,0,0,0,0,0,0,0,0,0,0,0,0,0,0,0,0,0,0,0,0,0,0,0,0,0,0.8165,0.8164,0,0.8057,0.8056,0.8055,0.798,0.7979,0.7979,0.7978,0.7864,0.7861,0.7859,0,0,0,0,0,0,0,0,0,0,0,0,0,0.8302,0.83,0.8165,0.8164,0.8163,0.8058,0.8056,0.8055,0.798,0.7979,0.7979,0.7978,0.7864,0.7861,0.7858,0,0,0,0,0,0,0,0,0,0,0,0,0,0.8223,0.8299,0.8165,0.8113,0.8107,0.8058,0.8056,0.8054,0.798,0.7979,0.7979,0.7978,0.7865,0.7862,0.7858,0.7851,0,0,0.7846,0.7845,0,0,0,0,0,0,0,0,0.8228,0.8218,0.8122,0.8116,0.811,0.8031,0.8062,0.7986,0.798,0.8028,0.7978,0.7977,0.792,0.7911,0.7893,0.7846,0.7841,0.7846,0.7844,0.7842,0.7841,0,0,0,0,0,0,0,0.8233,0.8222,0.8122,0.8121,0.8113,0.8093,0.8081,0.8047,0.798,0.8024,0.8018,0.8007,0.7916,0.7897,0.789,0.7839,0.7846,0.7843,0.784,0.7839,0.778,0.7781,0,0,0,0,0,0,0.8247,0.8227,0.8126,0.8119,0.8168,0.8091,0.8078,0.8057,0.798,0.7968,0.8008,0.8004,0.7904,0.7894,0.7885,0.7872,0.7842,0.7839,0.7836,0.778,0.7781,0.7781,0,0,0,0,0,0,0.8251,0.8239,0.813,0.8172,0.8156,0.809,0.8068,0.8056,0.8036,0.7968,0.7955,0.8001,0.7903,0.7891,0.786,0.7867,0.7837,0.7833,0.7779,0.778,0.7781,0.7846,0,0,0,0,0,0,0.8255,0.8241,0.8239,0.8172,0.8154,0.8109,0.8068,0.8054,0.803,0.8024,0.7958,0.7946,0.7901,0.7867,0.7857,0.7861,0.783,0.7778,0.7779,0.7781,0.7843,0.7849,0.7854,0,0,0,0,0,0.826,0.826,0.8239,0.8227,0.8151,0.8109,0.8099,0.8049,0.8031,0.8028,0.7984,0.7948,0.7868,0.7864,0.7852,0.7856,0.7777,0.7779,0.7781,0.784,0.7848,0.7854,0,0,0,0,0,0,0.8328,0.8251,0.8226,0.8205,0.8165,0.8097,0.8091,0.8058,0.8021,0.8016,0.7954,0.794,0.7916,0.7882,0.788,0.7845,0.7818,0.7818,0.7868,0.7874,0.788,0.7888,0.7827,0,0,0,0,0,0.8341,0.8315,0.8248,0.8236,0.8217,0.8158,0.8138,0.8103,0.8058,0.804,0.7993,0.795,0.7914,0.7892,0.7856,0.7838,0.7821,0.7834,0.784,0.7845,0.7845,0.7832,0.7837,0.7787,0.7787,0.7787,0,0,0.8366,0.8321,0.8308,0.8249,0.8213,0.8186,0.8144,0.8117,0.8097,0.8035,0.8004,0.7969,0.7915,0.7891,0.7878,0.7862,0.7855,0.7847,0.7852,0.7849,0.7834,0.7839,0.7843,0.7788,0.7788,0.7787,0,0,0.8399,0.8363,0.8348,0.8314,0.8261,0.8222,0.8218,0.8155,0.813,0.8098,0.8051,0.8025,0.7966,0.793,0.7904,0.7923,0.7888,0.7913,0.7943,0.7931,0.7935,0.7938,0.7944,0.7947,0.7913,0.7914,0.7914,0,0.8437,0.8396,0.8345,0.8321,0.8296,0.8241,0.8225,0.8194,0.8131,0.8114,0.8099,0.8023,0.7984,0.795,0.7955,0.7936,0.7929,0.792,0.7939,0.7941,0.7944,0.7949,0.7951,0.7917,0.7917,0.7916,0.7916,0,0.8445,0.8418,0.8412,0.8355,0.8329,0.831,0.8254,0.8234,0.8201,0.8163,0.8131,0.8081,0.8034,0.8023,0.7991,0.7985,0.7977,0.7951,0.7923,0.7953,0.7956,0.7958,0.7922,0.7921,0.792,0.7919,0,0,0.8517,0.8432,0.8431,0.8404,0.8342,0.8319,0.8297,0.8252,0.8236,0.8194,0.8173,0.8125,0.81,0.8071,0.8033,0.8023,0.8041,0.7998,0.7995,0.8007,0.803,0.8049,0.8053,0.8018,0.8018,0.8018,0.8034,0,0.854,0.8499,0.8452,0.8426,0.8399,0.8346,0.8327,0.8286,0.8249,0.822,0.8179,0.8146,0.8117,0.8098,0.8086,0.8041,0.8044,0.804,0.7996,0.7995,0.801,0.8055,0.8075,0.8093,0.8035,0.8036,0.8036,0,0.8561,0.8524,0.8497,0.8437,0.8424,0.8407,0.8362,0.8335,0.8287,0.8261,0.8229,0.8189,0.8161,0.8137,0.8097,0.8095,0.8074,0.805,0.8049,0.8042,0.8017,0.8049,0.8097,0.81,0.8038,0.8037,0.8037,0,0.8616,0.8559,0.8535,0.8513,0.8443,0.8433,0.8402,0.8354,0.833,0.829,0.8273,0.8231,0.8207,0.8174,0.8123,0.811,0.8088,0.806,0.8065,0.8066,0.8062,0.8062,0.8107,0.805,0.805,0.805,0.805,0,0.8646,0.863,0.8558,0.8544,0.8525,0.847,0.8452,0.8417,0.8374,0.835,0.8301,0.828,0.8214,0.8184,0.8144,0.8117,0.8106,0.8084,0.8073,0.8088,0.8091,0.8073,0.807,0.805,0.805,0.805,0.805,0,0.8703,0.8654,0.8624,0.8561,0.8545,0.8533,0.8478,0.846,0.8422,0.8392,0.8382,0.8321,0.8283,0.8229,0.8175,0.8148,0.8126,0.8109,0.8143,0.8136,0.8144,0.8143,0.8178,0.8179,0.8122,0.8123,0.8123,0,0.8725,0.8712,0.8648,0.863,0.8602,0.8572,0.8548,0.8493,0.847,0.8414,0.8403,0.8362,0.8326,0.8268,0.8218,0.8176,0.8157,0.8172,0.815,0.8165,0.8156,0.8157,0.8155,0.8177,0.8178,0.8179,0.8179,0,0.8769,0.8746,0.8714,0.8674,0.8646,0.8611,0.8574,0.8561,0.8498,0.8474,0.8436,0.8408,0.8353,0.8312,0.8264,0.823,0.8194,0.8187,0.8185,0.82,0.8219,0.8208,0.8156,0.8186,0.8185,0.8185,0.8184,0.8184,0.8809,0.8795,0.8748,0.8713,0.868,0.8646,0.8627,0.8586,0.8554,0.8506,0.8476,0.8439,0.839,0.8321,0.829,0.8259,0.8244,0.8242,0.8241,0.8242,0.8246,0.8226,0.825,0.8249,0.8249,0.8249,0.8249,0,0.885,0.8817,0.8786,0.8736,0.8709,0.8679,0.8636,0.8615,0.8583,0.8542,0.8508,0.8464,0.8424,0.8371,0.8327,0.8312,0.8294,0.8303,0.8302,0.8295,0.8263,0.8268,0.8318,0.8318,0.8318,0.8318,0.8318,0.8318,0.8868,0.8843,0.8814,0.8771,0.8738,0.8703,0.8681,0.8649,0.8615,0.8569,0.8536,0.8502,0.8455,0.8408,0.837,0.8355,0.834,0.8354,0.8334,0.8304,0.8298,0.8292,0.8296,0.8351,0.8351,0.8368,0.8368,0.8369]},{"header":{"parameterUnit":"m.s-1","parameterCategory":1,"la1":30.2991,"la2":30.254,"lo1":-89.0895,"lo2":-89.0444,"dy":0.0017,"dx":0.0017,"nx":28,"ny":28,"refTime":"2025-05-26T03:00:00:Z","depth":0,"parameterNumber":3,"parameterNumberName":"V-component_of_WINDS"},"data":[0,0,0,0,0,0,0,0,0,0,0,0,0,0,0,0,0,0,0,0,0,0,0,0,0,0,0,0,0,0,0,0,0,0,0,0,0,0,0,0,0,0,0,0,0,0,0,0,0,0,0,0,0,0,0,0,0,0,2.6499,2.65,0,2.6605,2.6606,2.6607,2.664,2.6639,2.6639,2.6638,2.6745,2.6748,2.6751,0,0,0,0,0,0,0,0,0,0,0,0,0,2.6321,2.6325,2.6498,2.65,2.6501,2.6605,2.6606,2.6608,2.664,2.6639,2.6639,2.6638,2.6743,2.6747,2.6751,0,0,0,0,0,0,0,0,0,0,0,0,0,2.641,2.6326,2.6498,2.653,2.6534,2.6605,2.6606,2.6608,2.664,2.6639,2.6638,2.6638,2.6742,2.6747,2.6752,2.6798,0,0,2.6767,2.6769,0,0,0,0,0,0,0,0,2.6405,2.6417,2.6524,2.6528,2.6532,2.6608,2.6583,2.6672,2.664,2.6599,2.6638,2.6637,2.67,2.6708,2.673,2.6803,2.6808,2.6768,2.6771,2.6773,2.6774,0,0,0,0,0,0,0,2.6399,2.6412,2.6541,2.6525,2.653,2.6538,2.655,2.66,2.6653,2.6603,2.6606,2.6618,2.6702,2.6725,2.6732,2.681,2.6767,2.6772,2.6775,2.6777,2.6929,2.693,0,0,0,0,0,0,2.6388,2.6407,2.6537,2.6544,2.6465,2.6542,2.6555,2.6585,2.6652,2.6662,2.6618,2.6619,2.6717,2.6727,2.6736,2.6797,2.6773,2.6777,2.678,2.6928,2.6929,2.693,0,0,0,0,0,0,2.6384,2.6399,2.6533,2.6476,2.6494,2.6546,2.6579,2.6587,2.661,2.6664,2.6673,2.6632,2.6717,2.6729,2.6783,2.6801,2.678,2.6784,2.6926,2.6928,2.6929,2.6917,0,0,0,0,0,0,2.6378,2.6397,2.6416,2.6476,2.6497,2.6579,2.658,2.659,2.6619,2.6621,2.668,2.6688,2.6717,2.6776,2.6788,2.6807,2.6788,2.6925,2.6927,2.6929,2.6916,2.6918,2.6919,0,0,0,0,0,2.6372,2.6407,2.6417,2.6432,2.6521,2.6579,2.6591,2.6624,2.662,2.6639,2.6674,2.6687,2.6797,2.6781,2.6795,2.6816,2.6924,2.6926,2.6929,2.6915,2.6918,2.6919,0,0,0,0,0,0,2.6346,2.6415,2.6427,2.6483,2.6525,2.6585,2.661,2.6625,2.6668,2.6668,2.6706,2.6719,2.6771,2.6799,2.678,2.6866,2.6861,2.6866,2.6846,2.6848,2.685,2.6842,2.6792,0,0,0,0,0,2.6347,2.6389,2.6447,2.6491,2.6512,2.6557,2.6584,2.6606,2.6651,2.6668,2.6707,2.675,2.6794,2.6823,2.6866,2.692,2.6934,2.6941,2.6943,2.6944,2.6949,2.6981,2.6985,2.6938,2.6938,2.6938,0,0,2.6349,2.6392,2.6416,2.6487,2.6522,2.6565,2.6572,2.6616,2.6649,2.6675,2.6729,2.6759,2.6809,2.6864,2.689,2.6889,2.6965,2.6947,2.6948,2.6952,2.6984,2.6988,2.6992,2.6939,2.6939,2.6939,0,0,2.6375,2.6411,2.6453,2.6488,2.6543,2.6573,2.6582,2.6641,2.6662,2.6717,2.6738,2.6776,2.6852,2.6887,2.6915,2.6956,2.697,2.6969,2.6978,2.7009,2.7013,2.7016,2.7032,2.7037,2.6973,2.6973,2.6973,0,2.637,2.6436,2.6471,2.6516,2.6547,2.6574,2.6616,2.6649,2.6714,2.6734,2.6732,2.6829,2.6864,2.6929,2.6939,2.696,2.6973,2.6963,2.701,2.7014,2.7017,2.7033,2.7039,2.6973,2.6973,2.6973,2.6973,0,2.6429,2.6474,2.6501,2.6565,2.6599,2.6642,2.6683,2.6713,2.6732,2.6762,2.6819,2.6862,2.6916,2.6933,2.6951,2.7,2.6998,2.7002,2.6998,2.7021,2.7036,2.7043,2.6972,2.6972,2.6973,2.6973,0,0,2.6441,2.6525,2.6534,2.6564,2.6627,2.6663,2.6707,2.6761,2.6786,2.683,2.6869,2.6933,2.6938,2.697,2.6992,2.7019,2.705,2.702,2.7022,2.7025,2.7109,2.7106,2.7112,2.706,2.7061,2.7062,2.7105,0,2.6476,2.6557,2.6591,2.6657,2.67,2.6727,2.6765,2.6808,2.6837,2.6878,2.691,2.6956,2.6958,2.6978,2.7006,2.7041,2.7068,2.7038,2.7096,2.7098,2.7084,2.712,2.7117,2.7155,2.7111,2.7112,2.7113,0,2.6527,2.6574,2.6644,2.6703,2.6722,2.6757,2.681,2.6848,2.6897,2.6917,2.6953,2.6974,2.7022,2.7014,2.7081,2.706,2.7086,2.7107,2.7109,2.7116,2.7107,2.7129,2.7168,2.7174,2.7122,2.7121,2.7121,0,2.6531,2.6611,2.6664,2.6688,2.6758,2.6782,2.6812,2.686,2.689,2.6936,2.6957,2.7007,2.7035,2.7073,2.7108,2.7099,2.7172,2.7166,2.719,2.7189,2.7204,2.7203,2.7249,2.7219,2.7219,2.7219,2.7218,0,2.6567,2.6609,2.6667,2.6699,2.6748,2.6786,2.6833,2.6864,2.6907,2.6946,2.6972,2.7008,2.7051,2.7093,2.712,2.7171,2.7183,2.7201,2.7208,2.7199,2.7197,2.7217,2.7216,2.722,2.722,2.722,2.7219,0,2.6579,2.6619,2.6679,2.6741,2.6757,2.679,2.6843,2.6876,2.6907,2.6956,2.697,2.7019,2.7069,2.7107,2.7172,2.7191,2.7246,2.7253,2.723,2.7234,2.7255,2.7253,2.7317,2.7328,2.7289,2.7289,2.7289,0,2.66,2.6634,2.67,2.6728,2.6759,2.6804,2.6836,2.6875,2.6907,2.6966,2.6992,2.7045,2.7089,2.7168,2.7209,2.7259,2.7268,2.7287,2.7276,2.7267,2.727,2.7268,2.7272,2.7289,2.7289,2.7289,2.7289,0,2.6634,2.6652,2.6698,2.6752,2.6789,2.6833,2.6877,2.6898,2.6945,2.698,2.7033,2.7067,2.7135,2.7187,2.7242,2.7272,2.7289,2.7292,2.7301,2.7293,2.7279,2.7288,2.7236,2.7291,2.7291,2.7291,2.729,2.729,2.6652,2.6684,2.6736,2.6786,2.6824,2.6864,2.6899,2.6935,2.698,2.7039,2.7059,2.7114,2.7162,2.7238,2.7269,2.7312,2.7312,2.7324,2.7327,2.7329,2.733,2.7271,2.7322,2.7322,2.7322,2.7322,2.7322,0,2.6688,2.6723,2.6769,2.6831,2.6871,2.6884,2.6933,2.6966,2.7014,2.7059,2.7103,2.7164,2.7215,2.726,2.7313,2.7339,2.7348,2.7352,2.7351,2.7358,2.7326,2.7314,2.7344,2.7344,2.7344,2.7344,2.7344,2.7344,2.6712,2.6767,2.6792,2.6866,2.69,2.6955,2.6983,2.7021,2.7057,2.7124,2.7168,2.7197,2.7242,2.7299,2.7347,2.7359,2.7378,2.738,2.7394,2.7363,2.736,2.7357,2.7347,2.7383,2.7383,2.7423,2.7423,2.7423]}]]